Year,Month,Day,Hour,Minute,Value (Times are PST for temperature in C)
2014,10,18,00,00,11.80
2014,10,18,00,01,11.80
2014,10,18,00,02,11.80
2014,10,18,00,03,11.80
2014,10,18,00,04,11.80
2014,10,18,00,05,11.80
2014,10,18,00,06,11.80
2014,10,18,00,07,11.80
2014,10,18,00,08,11.80
2014,10,18,00,09,11.80
2014,10,18,00,10,11.80
2014,10,18,00,11,11.80
2014,10,18,00,12,11.70
2014,10,18,00,13,11.70
2014,10,18,00,14,11.70
2014,10,18,00,15,11.70
2014,10,18,00,16,11.70
2014,10,18,00,17,11.70
2014,10,18,00,18,11.60
2014,10,18,00,19,11.60
2014,10,18,00,20,11.60
2014,10,18,00,21,11.60
2014,10,18,00,22,11.60
2014,10,18,00,23,11.60
2014,10,18,00,24,11.60
2014,10,18,00,25,11.60
2014,10,18,00,26,11.60
2014,10,18,00,27,11.50
2014,10,18,00,28,11.40
2014,10,18,00,29,11.40
2014,10,18,00,30,11.40
2014,10,18,00,31,11.40
2014,10,18,00,32,11.40
2014,10,18,00,33,11.40
2014,10,18,00,34,11.40
2014,10,18,00,35,11.40
2014,10,18,00,36,11.30
2014,10,18,00,37,11.30
2014,10,18,00,38,11.30
2014,10,18,00,39,11.30
2014,10,18,00,40,11.20
2014,10,18,00,41,11.20
2014,10,18,00,42,11.20
2014,10,18,00,43,11.20
2014,10,18,00,44,11.10
2014,10,18,00,45,11.10
2014,10,18,00,46,11.10
2014,10,18,00,47,11.10
2014,10,18,00,48,11.10
2014,10,18,00,49,11.10
2014,10,18,00,50,11.10
2014,10,18,00,51,11.10
2014,10,18,00,52,11.10
2014,10,18,00,53,11.00
2014,10,18,00,54,10.90
2014,10,18,00,55,10.90
2014,10,18,00,56,10.90
2014,10,18,00,57,10.90
2014,10,18,00,58,10.90
2014,10,18,00,59,10.90
2014,10,18,01,00,10.90
2014,10,18,01,01,10.90
2014,10,18,01,02,10.90
2014,10,18,01,03,10.90
2014,10,18,01,04,10.90
2014,10,18,01,05,10.90
2014,10,18,01,06,10.90
2014,10,18,01,07,10.90
2014,10,18,01,08,10.90
2014,10,18,01,09,10.90
2014,10,18,01,10,10.90
2014,10,18,01,11,10.90
2014,10,18,01,12,10.90
2014,10,18,01,13,10.90
2014,10,18,01,14,10.90
2014,10,18,01,15,10.90
2014,10,18,01,16,10.90
2014,10,18,01,17,10.90
2014,10,18,01,18,11.00
2014,10,18,01,19,11.10
2014,10,18,01,20,11.00
2014,10,18,01,21,10.90
2014,10,18,01,22,10.90
2014,10,18,01,23,10.90
2014,10,18,01,24,11.00
2014,10,18,01,25,11.10
2014,10,18,01,26,11.10
2014,10,18,01,27,11.10
2014,10,18,01,28,11.10
2014,10,18,01,29,11.10
2014,10,18,01,30,11.10
2014,10,18,01,31,11.10
2014,10,18,01,32,11.10
2014,10,18,01,33,11.10
2014,10,18,01,34,11.10
2014,10,18,01,35,11.10
2014,10,18,01,36,11.10
2014,10,18,01,37,11.10
2014,10,18,01,38,11.10
2014,10,18,01,39,11.10
2014,10,18,01,40,11.10
2014,10,18,01,41,11.10
2014,10,18,01,42,11.10
2014,10,18,01,43,11.10
2014,10,18,01,44,11.10
2014,10,18,01,45,11.10
2014,10,18,01,46,11.10
2014,10,18,01,47,11.10
2014,10,18,01,48,11.10
2014,10,18,01,49,11.10
2014,10,18,01,50,11.10
2014,10,18,01,51,11.10
2014,10,18,01,52,11.10
2014,10,18,01,53,11.10
2014,10,18,01,54,11.10
2014,10,18,01,55,11.10
2014,10,18,01,56,11.10
2014,10,18,01,57,11.10
2014,10,18,01,58,11.20
2014,10,18,01,59,11.20
2014,10,18,02,00,11.20
2014,10,18,02,01,11.20
2014,10,18,02,02,11.30
2014,10,18,02,03,11.30
2014,10,18,02,04,11.30
2014,10,18,02,05,11.30
2014,10,18,02,06,11.30
2014,10,18,02,07,11.30
2014,10,18,02,08,11.30
2014,10,18,02,09,11.30
2014,10,18,02,10,11.30
2014,10,18,02,11,11.30
2014,10,18,02,12,11.30
2014,10,18,02,13,11.30
2014,10,18,02,14,11.30
2014,10,18,02,15,11.30
2014,10,18,02,16,11.30
2014,10,18,02,17,11.30
2014,10,18,02,18,11.30
2014,10,18,02,19,11.30
2014,10,18,02,20,11.30
2014,10,18,02,21,11.30
2014,10,18,02,22,11.30
2014,10,18,02,23,11.30
2014,10,18,02,24,11.30
2014,10,18,02,25,11.30
2014,10,18,02,26,11.30
2014,10,18,02,27,11.30
2014,10,18,02,28,11.30
2014,10,18,02,29,11.30
2014,10,18,02,30,11.30
2014,10,18,02,31,11.30
2014,10,18,02,32,11.30
2014,10,18,02,33,11.30
2014,10,18,02,34,11.30
2014,10,18,02,35,11.30
2014,10,18,02,36,11.30
2014,10,18,02,37,11.20
2014,10,18,02,38,11.20
2014,10,18,02,39,11.20
2014,10,18,02,40,11.20
2014,10,18,02,41,11.20
2014,10,18,02,42,11.20
2014,10,18,02,43,11.20
2014,10,18,02,44,11.20
2014,10,18,02,45,11.20
2014,10,18,02,46,11.20
2014,10,18,02,47,11.20
2014,10,18,02,48,11.20
2014,10,18,02,49,11.20
2014,10,18,02,50,11.20
2014,10,18,02,51,11.20
2014,10,18,02,52,11.20
2014,10,18,02,53,11.20
2014,10,18,02,54,11.20
2014,10,18,02,55,11.20
2014,10,18,02,56,11.20
2014,10,18,02,57,11.20
2014,10,18,02,58,11.20
2014,10,18,02,59,11.20
2014,10,18,03,00,11.20
2014,10,18,03,01,11.30
2014,10,18,03,02,11.30
2014,10,18,03,03,11.30
2014,10,18,03,04,11.30
2014,10,18,03,05,11.30
2014,10,18,03,06,11.40
2014,10,18,03,07,11.40
2014,10,18,03,08,11.40
2014,10,18,03,09,11.40
2014,10,18,03,10,11.40
2014,10,18,03,11,11.40
2014,10,18,03,12,11.40
2014,10,18,03,13,11.50
2014,10,18,03,14,11.60
2014,10,18,03,15,11.60
2014,10,18,03,16,11.60
2014,10,18,03,17,11.60
2014,10,18,03,18,11.60
2014,10,18,03,19,11.60
2014,10,18,03,20,11.60
2014,10,18,03,21,11.60
2014,10,18,03,22,11.60
2014,10,18,03,23,11.60
2014,10,18,03,24,11.60
2014,10,18,03,25,11.60
2014,10,18,03,26,11.60
2014,10,18,03,27,11.60
2014,10,18,03,28,11.60
2014,10,18,03,29,11.60
2014,10,18,03,30,11.60
2014,10,18,03,31,11.60
2014,10,18,03,32,11.60
2014,10,18,03,33,11.60
2014,10,18,03,34,11.60
2014,10,18,03,35,11.60
2014,10,18,03,36,11.60
2014,10,18,03,37,11.60
2014,10,18,03,38,11.60
2014,10,18,03,39,11.60
2014,10,18,03,40,11.60
2014,10,18,03,41,11.60
2014,10,18,03,42,11.60
2014,10,18,03,43,11.60
2014,10,18,03,44,11.50
2014,10,18,03,45,11.40
2014,10,18,03,46,11.40
2014,10,18,03,47,11.40
2014,10,18,03,48,11.40
2014,10,18,03,49,11.40
2014,10,18,03,50,11.40
2014,10,18,03,51,11.40
2014,10,18,03,52,11.40
2014,10,18,03,53,11.40
2014,10,18,03,54,11.40
2014,10,18,03,55,11.40
2014,10,18,03,56,11.40
2014,10,18,03,57,11.30
2014,10,18,03,58,11.30
2014,10,18,03,59,11.30
2014,10,18,04,00,11.30
2014,10,18,04,01,11.20
2014,10,18,04,02,11.20
2014,10,18,04,03,11.20
2014,10,18,04,04,11.20
2014,10,18,04,05,11.20
2014,10,18,04,06,11.20
2014,10,18,04,07,11.20
2014,10,18,04,08,11.10
2014,10,18,04,09,11.10
2014,10,18,04,10,11.10
2014,10,18,04,11,11.10
2014,10,18,04,12,11.10
2014,10,18,04,13,11.10
2014,10,18,04,14,11.20
2014,10,18,04,15,11.20
2014,10,18,04,16,11.20
2014,10,18,04,17,11.20
2014,10,18,04,18,11.20
2014,10,18,04,19,11.20
2014,10,18,04,20,11.20
2014,10,18,04,21,11.20
2014,10,18,04,22,11.20
2014,10,18,04,23,11.20
2014,10,18,04,24,11.20
2014,10,18,04,25,11.20
2014,10,18,04,26,11.20
2014,10,18,04,27,11.20
2014,10,18,04,28,11.30
2014,10,18,04,29,11.30
2014,10,18,04,30,11.30
2014,10,18,04,31,11.40
2014,10,18,04,32,11.40
2014,10,18,04,33,11.30
2014,10,18,04,34,11.30
2014,10,18,04,35,11.30
2014,10,18,04,36,11.30
2014,10,18,04,37,11.20
2014,10,18,04,38,11.20
2014,10,18,04,39,11.20
2014,10,18,04,40,11.20
2014,10,18,04,41,11.20
2014,10,18,04,42,11.10
2014,10,18,04,43,11.10
2014,10,18,04,44,11.10
2014,10,18,04,45,11.10
2014,10,18,04,46,11.10
2014,10,18,04,47,11.10
2014,10,18,04,48,11.10
2014,10,18,04,49,11.10
2014,10,18,04,50,11.10
2014,10,18,04,51,11.10
2014,10,18,04,52,11.10
2014,10,18,04,53,11.10
2014,10,18,04,54,11.10
2014,10,18,04,55,11.00
2014,10,18,04,56,10.90
2014,10,18,04,57,10.90
2014,10,18,04,58,10.90
2014,10,18,04,59,10.90
2014,10,18,05,00,10.90
2014,10,18,05,01,10.90
2014,10,18,05,02,10.90
2014,10,18,05,03,10.90
2014,10,18,05,04,10.90
2014,10,18,05,05,10.90
2014,10,18,05,06,10.90
2014,10,18,05,07,10.90
2014,10,18,05,08,10.90
2014,10,18,05,09,10.90
2014,10,18,05,10,10.90
2014,10,18,05,11,10.90
2014,10,18,05,12,10.90
2014,10,18,05,13,10.90
2014,10,18,05,14,10.90
2014,10,18,05,15,10.90
2014,10,18,05,16,10.90
2014,10,18,05,17,10.90
2014,10,18,05,18,10.90
2014,10,18,05,19,10.90
2014,10,18,05,20,10.90
2014,10,18,05,21,10.80
2014,10,18,05,22,10.80
2014,10,18,05,23,10.70
2014,10,18,05,24,10.70
2014,10,18,05,25,10.60
2014,10,18,05,26,10.60
2014,10,18,05,27,10.60
2014,10,18,05,28,10.60
2014,10,18,05,29,10.60
2014,10,18,05,30,10.40
2014,10,18,05,31,10.40
2014,10,18,05,32,10.40
2014,10,18,05,33,10.40
2014,10,18,05,34,10.40
2014,10,18,05,35,10.40
2014,10,18,05,36,10.40
2014,10,18,05,37,10.40
2014,10,18,05,38,10.40
2014,10,18,05,39,10.40
2014,10,18,05,40,10.40
2014,10,18,05,41,10.40
2014,10,18,05,42,10.40
2014,10,18,05,43,10.40
2014,10,18,05,44,10.40
2014,10,18,05,45,10.40
2014,10,18,05,46,10.40
2014,10,18,05,47,10.40
2014,10,18,05,48,10.40
2014,10,18,05,49,10.40
2014,10,18,05,50,10.40
2014,10,18,05,51,10.30
2014,10,18,05,52,10.30
2014,10,18,05,53,10.30
2014,10,18,05,54,10.30
2014,10,18,05,55,10.30
2014,10,18,05,56,10.20
2014,10,18,05,57,10.20
2014,10,18,05,58,10.20
2014,10,18,05,59,10.20
2014,10,18,06,00,10.20
2014,10,18,06,01,10.20
2014,10,18,06,02,10.20
2014,10,18,06,03,10.20
2014,10,18,06,04,10.10
2014,10,18,06,05,10.10
2014,10,18,06,06,10.10
2014,10,18,06,07,10.10
2014,10,18,06,08,10.10
2014,10,18,06,09,10.10
2014,10,18,06,10,10.10
2014,10,18,06,11,10.10
2014,10,18,06,12,10.20
2014,10,18,06,13,10.20
2014,10,18,06,14,10.20
2014,10,18,06,15,10.20
2014,10,18,06,16,10.20
2014,10,18,06,17,10.20
2014,10,18,06,18,10.10
2014,10,18,06,19,10.10
2014,10,18,06,20,10.10
2014,10,18,06,21,10.10
2014,10,18,06,22,10.10
2014,10,18,06,23,10.10
2014,10,18,06,24,10.10
2014,10,18,06,25,10.10
2014,10,18,06,26,10.10
2014,10,18,06,27,10.10
2014,10,18,06,28,10.10
2014,10,18,06,29,10.10
2014,10,18,06,30,10.10
2014,10,18,06,31,10.10
2014,10,18,06,32,10.10
2014,10,18,06,33,10.10
2014,10,18,06,34,10.10
2014,10,18,06,35,10.00
2014,10,18,06,36,9.90
2014,10,18,06,37,9.90
2014,10,18,06,38,9.90
2014,10,18,06,39,9.90
2014,10,18,06,40,9.90
2014,10,18,06,41,9.90
2014,10,18,06,42,9.90
2014,10,18,06,43,9.90
2014,10,18,06,44,9.90
2014,10,18,06,45,9.90
2014,10,18,06,46,9.90
2014,10,18,06,47,9.90
2014,10,18,06,48,10.00
2014,10,18,06,49,10.10
2014,10,18,06,50,10.10
2014,10,18,06,51,10.10
2014,10,18,06,52,10.10
2014,10,18,06,53,10.10
2014,10,18,06,54,10.10
2014,10,18,06,55,10.10
2014,10,18,06,56,10.10
2014,10,18,06,57,10.10
2014,10,18,06,58,10.10
2014,10,18,06,59,10.10
2014,10,18,07,00,10.10
2014,10,18,07,01,10.10
2014,10,18,07,02,10.10
2014,10,18,07,03,10.10
2014,10,18,07,04,10.10
2014,10,18,07,05,10.10
2014,10,18,07,06,10.10
2014,10,18,07,07,10.10
2014,10,18,07,08,10.10
2014,10,18,07,09,10.10
2014,10,18,07,10,10.10
2014,10,18,07,11,10.10
2014,10,18,07,12,10.10
2014,10,18,07,13,10.10
2014,10,18,07,14,10.20
2014,10,18,07,15,10.20
2014,10,18,07,16,10.20
2014,10,18,07,17,10.20
2014,10,18,07,18,10.20
2014,10,18,07,19,10.20
2014,10,18,07,20,10.30
2014,10,18,07,21,10.30
2014,10,18,07,22,10.30
2014,10,18,07,23,10.30
2014,10,18,07,24,10.20
2014,10,18,07,25,10.30
2014,10,18,07,26,10.30
2014,10,18,07,27,10.30
2014,10,18,07,28,10.30
2014,10,18,07,29,10.40
2014,10,18,07,30,10.40
2014,10,18,07,31,10.40
2014,10,18,07,32,10.40
2014,10,18,07,33,10.40
2014,10,18,07,34,10.40
2014,10,18,07,35,10.40
2014,10,18,07,36,10.40
2014,10,18,07,37,10.40
2014,10,18,07,38,10.40
2014,10,18,07,39,10.50
2014,10,18,07,40,10.60
2014,10,18,07,41,10.70
2014,10,18,07,42,10.70
2014,10,18,07,43,10.80
2014,10,18,07,44,10.80
2014,10,18,07,45,10.80
2014,10,18,07,46,10.80
2014,10,18,07,47,10.80
2014,10,18,07,48,10.80
2014,10,18,07,49,10.80
2014,10,18,07,50,10.80
2014,10,18,07,51,10.80
2014,10,18,07,52,10.80
2014,10,18,07,53,10.80
2014,10,18,07,54,10.80
2014,10,18,09,53,13.30
2014,10,18,09,54,13.30
2014,10,18,09,55,13.30
2014,10,18,09,56,13.40
2014,10,18,09,57,13.40
2014,10,18,09,58,13.50
2014,10,18,09,59,13.50
2014,10,18,10,00,13.50
2014,10,18,10,01,13.50
2014,10,18,10,02,13.50
2014,10,18,10,03,13.60
2014,10,18,10,04,13.60
2014,10,18,10,05,13.70
2014,10,18,10,06,13.80
2014,10,18,10,07,13.90
2014,10,18,10,08,13.90
2014,10,18,10,09,13.90
2014,10,18,10,10,13.90
2014,10,18,10,11,13.90
2014,10,18,10,12,13.90
2014,10,18,10,13,13.90
2014,10,18,10,14,13.90
2014,10,18,10,15,13.90
2014,10,18,10,16,14.00
2014,10,18,10,17,14.10
2014,10,18,10,18,14.10
2014,10,18,10,19,14.10
2014,10,18,10,20,14.10
2014,10,18,10,21,14.10
2014,10,18,10,22,14.10
2014,10,18,10,23,14.10
2014,10,18,10,24,14.10
2014,10,18,10,25,14.10
2014,10,18,10,26,14.10
2014,10,18,10,27,14.10
2014,10,18,10,28,14.20
2014,10,18,10,29,14.20
2014,10,18,10,30,14.20
2014,10,18,10,31,14.30
2014,10,18,10,32,14.50
2014,10,18,10,33,14.60
2014,10,18,10,34,14.70
2014,10,18,10,35,14.70
2014,10,18,10,36,14.70
2014,10,18,10,37,14.80
2014,10,18,10,38,14.80
2014,10,18,10,39,14.80
2014,10,18,10,40,14.80
2014,10,18,10,41,14.80
2014,10,18,10,42,14.90
2014,10,18,10,43,15.00
2014,10,18,10,44,15.10
2014,10,18,10,45,15.10
2014,10,18,10,46,15.20
2014,10,18,10,47,15.20
2014,10,18,10,48,15.30
2014,10,18,10,49,15.20
2014,10,18,10,50,15.20
2014,10,18,10,51,15.20
2014,10,18,10,52,15.20
2014,10,18,10,53,15.20
2014,10,18,10,54,15.20
2014,10,18,10,55,15.30
2014,10,18,10,56,15.30
2014,10,18,10,57,15.50
2014,10,18,10,58,15.50
2014,10,18,10,59,15.50
2014,10,18,11,00,15.60
2014,10,18,11,01,15.60
2014,10,18,11,02,15.70
2014,10,18,11,03,15.70
2014,10,18,11,04,15.70
2014,10,18,11,05,15.70
2014,10,18,11,06,15.70
2014,10,18,11,07,15.80
2014,10,18,11,08,15.90
2014,10,18,11,09,15.90
2014,10,18,11,10,15.90
2014,10,18,11,11,16.00
2014,10,18,11,12,16.10
2014,10,18,11,13,16.10
2014,10,18,11,14,16.00
2014,10,18,11,15,15.90
2014,10,18,11,16,15.90
2014,10,18,11,17,15.90
2014,10,18,11,18,16.00
2014,10,18,11,19,16.10
2014,10,18,11,20,16.20
2014,10,18,11,21,16.30
2014,10,18,11,22,16.30
2014,10,18,11,23,16.30
2014,10,18,11,24,16.20
2014,10,18,11,25,16.20
2014,10,18,11,26,16.10
2014,10,18,11,27,16.20
2014,10,18,11,28,16.30
2014,10,18,11,29,16.40
2014,10,18,11,30,16.50
2014,10,18,11,31,16.70
2014,10,18,11,32,16.70
2014,10,18,11,33,16.80
2014,10,18,11,34,16.90
2014,10,18,11,35,17.00
2014,10,18,11,36,17.10
2014,10,18,11,37,17.20
2014,10,18,11,38,17.20
2014,10,18,11,39,17.30
2014,10,18,11,40,17.30
2014,10,18,11,41,17.20
2014,10,18,11,42,17.20
2014,10,18,11,43,17.20
2014,10,18,11,44,17.30
2014,10,18,11,45,17.30
2014,10,18,11,46,17.30
2014,10,18,11,47,17.30
2014,10,18,11,48,17.30
2014,10,18,11,49,17.40
2014,10,18,11,50,17.40
2014,10,18,11,51,17.40
2014,10,18,11,52,17.50
2014,10,18,11,53,17.60
2014,10,18,11,54,17.70
2014,10,18,11,55,17.70
2014,10,18,11,56,17.80
2014,10,18,11,57,17.80
2014,10,18,11,58,17.70
2014,10,18,11,59,17.70
2014,10,18,12,00,17.70
2014,10,18,12,01,17.70
2014,10,18,12,02,17.70
2014,10,18,12,03,17.70
2014,10,18,12,04,17.70
2014,10,18,12,05,17.60
2014,10,18,12,06,17.60
2014,10,18,12,07,17.50
2014,10,18,12,08,17.50
2014,10,18,12,09,17.50
2014,10,18,12,10,17.60
2014,10,18,12,11,17.60
2014,10,18,12,12,17.70
2014,10,18,12,13,17.80
2014,10,18,12,14,17.90
2014,10,18,12,15,17.90
2014,10,18,12,16,17.80
2014,10,18,12,17,17.70
2014,10,18,12,18,17.60
2014,10,18,12,19,17.60
2014,10,18,12,20,17.60
2014,10,18,12,21,17.50
2014,10,18,12,22,17.40
2014,10,18,12,23,17.30
2014,10,18,12,24,17.20
2014,10,18,12,25,17.00
2014,10,18,12,26,16.90
2014,10,18,12,27,16.90
2014,10,18,12,28,16.80
2014,10,18,12,29,16.80
2014,10,18,12,30,16.90
2014,10,18,12,31,16.90
2014,10,18,12,32,16.80
2014,10,18,12,33,16.80
2014,10,18,12,34,16.80
2014,10,18,12,35,16.90
2014,10,18,12,36,16.90
2014,10,18,12,37,17.00
2014,10,18,12,38,17.10
2014,10,18,12,39,17.30
2014,10,18,12,40,17.30
2014,10,18,12,41,17.50
2014,10,18,12,42,17.50
2014,10,18,12,43,17.50
2014,10,18,12,44,17.40
2014,10,18,12,45,17.40
2014,10,18,12,46,17.40
2014,10,18,12,47,17.40
2014,10,18,12,48,17.40
2014,10,18,12,49,17.40
2014,10,18,12,50,17.40
2014,10,18,12,51,17.40
2014,10,18,12,52,17.50
2014,10,18,12,53,17.50
2014,10,18,12,54,17.50
2014,10,18,12,55,17.40
2014,10,18,12,56,17.30
2014,10,18,12,57,17.30
2014,10,18,12,58,17.30
2014,10,18,12,59,17.30
2014,10,18,13,00,17.30
2014,10,18,13,01,17.30
2014,10,18,13,02,17.30
2014,10,18,13,03,17.20
2014,10,18,13,04,17.20
2014,10,18,13,05,17.10
2014,10,18,13,06,17.00
2014,10,18,13,07,16.80
2014,10,18,13,08,16.70
2014,10,18,13,09,16.70
2014,10,18,13,10,16.60
2014,10,18,13,11,16.50
2014,10,18,13,12,16.40
2014,10,18,13,13,16.40
2014,10,18,13,14,16.30
2014,10,18,13,15,16.20
2014,10,18,13,16,16.10
2014,10,18,13,17,16.00
2014,10,18,13,18,15.80
2014,10,18,13,19,15.80
2014,10,18,13,20,15.70
2014,10,18,13,21,15.60
2014,10,18,13,22,15.60
2014,10,18,13,23,15.60
2014,10,18,13,24,15.50
2014,10,18,13,25,15.50
2014,10,18,13,26,15.40
2014,10,18,13,27,15.40
2014,10,18,13,28,15.50
2014,10,18,13,29,15.50
2014,10,18,13,30,15.60
2014,10,18,13,31,15.60
2014,10,18,13,32,15.50
2014,10,18,13,33,15.50
2014,10,18,13,34,15.50
2014,10,18,13,35,15.50
2014,10,18,13,36,15.50
2014,10,18,13,37,15.40
2014,10,18,13,38,15.40
2014,10,18,13,39,15.40
2014,10,18,13,40,15.40
2014,10,18,13,41,15.40
2014,10,18,13,42,15.50
2014,10,18,13,43,15.50
2014,10,18,13,44,15.60
2014,10,18,13,45,15.70
2014,10,18,13,46,15.80
2014,10,18,13,47,15.90
2014,10,18,13,48,16.00
2014,10,18,13,49,16.10
2014,10,18,13,50,16.10
2014,10,18,13,51,16.20
2014,10,18,13,52,16.30
2014,10,18,13,53,16.30
2014,10,18,13,54,16.40
2014,10,18,13,55,16.40
2014,10,18,13,56,16.40
2014,10,18,13,57,16.40
2014,10,18,13,58,16.40
2014,10,18,13,59,16.40
2014,10,18,14,00,16.30
2014,10,18,14,01,16.20
2014,10,18,14,02,16.20
2014,10,18,14,03,16.20
2014,10,18,14,04,16.20
2014,10,18,14,05,16.10
2014,10,18,14,06,16.20
2014,10,18,14,07,16.20
2014,10,18,14,08,16.20
2014,10,18,14,09,16.30
2014,10,18,14,10,16.30
2014,10,18,14,11,16.40
2014,10,18,14,12,16.40
2014,10,18,14,13,16.40
2014,10,18,14,14,16.40
2014,10,18,14,15,16.50
2014,10,18,14,16,16.60
2014,10,18,14,17,16.60
2014,10,18,14,18,16.60
2014,10,18,14,19,16.60
2014,10,18,14,20,16.70
2014,10,18,14,21,16.70
2014,10,18,14,22,16.70
2014,10,18,14,23,16.80
2014,10,18,14,24,16.90
2014,10,18,14,25,16.90
2014,10,18,14,26,16.90
2014,10,18,14,27,16.90
2014,10,18,14,28,16.80
2014,10,18,14,29,16.80
2014,10,18,14,30,16.80
2014,10,18,14,31,16.80
2014,10,18,14,32,16.80
2014,10,18,14,33,16.90
2014,10,18,14,34,16.90
2014,10,18,14,35,16.90
2014,10,18,14,36,17.00
2014,10,18,14,37,17.00
2014,10,18,14,38,17.10
2014,10,18,14,39,17.20
2014,10,18,14,40,17.20
2014,10,18,14,41,17.30
2014,10,18,14,42,17.30
2014,10,18,14,43,17.30
2014,10,18,14,44,17.40
2014,10,18,14,45,17.40
2014,10,18,14,46,17.50
2014,10,18,14,47,17.60
2014,10,18,14,48,17.70
2014,10,18,14,49,17.70
2014,10,18,14,50,17.70
2014,10,18,14,51,17.80
2014,10,18,14,52,17.80
2014,10,18,14,53,17.90
2014,10,18,14,54,17.90
2014,10,18,14,55,17.90
2014,10,18,14,56,17.90
2014,10,18,14,57,17.90
2014,10,18,14,58,17.90
2014,10,18,14,59,17.90
2014,10,18,15,00,17.90
2014,10,18,15,01,17.90
2014,10,18,15,02,17.90
2014,10,18,15,03,17.90
2014,10,18,15,04,17.90
2014,10,18,15,05,17.90
2014,10,18,15,06,18.10
2014,10,18,15,07,18.10
2014,10,18,15,08,18.20
2014,10,18,15,09,18.20
2014,10,18,15,10,18.20
2014,10,18,15,11,18.20
2014,10,18,15,12,18.20
2014,10,18,15,13,18.20
2014,10,18,15,14,18.20
2014,10,18,15,15,18.20
2014,10,18,15,16,18.20
2014,10,18,15,17,18.20
2014,10,18,15,18,18.20
2014,10,18,15,19,18.30
2014,10,18,15,20,18.30
2014,10,18,15,21,18.40
2014,10,18,15,22,18.40
2014,10,18,15,23,18.40
2014,10,18,15,24,18.40
2014,10,18,15,25,18.40
2014,10,18,15,26,18.40
2014,10,18,15,27,18.30
2014,10,18,15,28,18.30
2014,10,18,15,29,18.30
2014,10,18,15,30,18.20
2014,10,18,15,31,18.20
2014,10,18,15,32,18.20
2014,10,18,15,33,18.20
2014,10,18,15,34,18.20
2014,10,18,15,35,18.20
2014,10,18,15,36,18.20
2014,10,18,15,37,18.30
2014,10,18,15,38,18.30
2014,10,18,15,39,18.30
2014,10,18,15,40,18.30
2014,10,18,15,41,18.30
2014,10,18,15,42,18.30
2014,10,18,15,43,18.30
2014,10,18,15,44,18.30
2014,10,18,15,45,18.30
2014,10,18,15,46,18.30
2014,10,18,15,47,18.30
2014,10,18,15,48,18.30
2014,10,18,15,49,18.30
2014,10,18,15,50,18.30
2014,10,18,15,51,18.30
2014,10,18,15,52,18.30
2014,10,18,15,53,18.30
2014,10,18,15,54,18.30
2014,10,18,15,55,18.30
2014,10,18,15,56,18.30
2014,10,18,15,57,18.30
2014,10,18,15,58,18.30
2014,10,18,15,59,18.30
2014,10,18,16,00,18.30
2014,10,18,16,01,18.30
2014,10,18,16,02,18.30
2014,10,18,16,03,18.30
2014,10,18,16,04,18.30
2014,10,18,16,05,18.30
2014,10,18,16,06,18.20
2014,10,18,16,07,18.20
2014,10,18,16,08,18.20
2014,10,18,16,09,18.20
2014,10,18,16,10,18.20
2014,10,18,16,11,18.20
2014,10,18,16,12,18.20
2014,10,18,16,13,18.20
2014,10,18,16,14,18.20
2014,10,18,16,15,18.20
2014,10,18,16,16,18.30
2014,10,18,16,17,18.30
2014,10,18,16,18,18.30
2014,10,18,16,19,18.40
2014,10,18,16,20,18.40
2014,10,18,16,21,18.40
2014,10,18,16,22,18.50
2014,10,18,16,23,18.50
2014,10,18,16,24,18.60
2014,10,18,16,25,18.60
2014,10,18,16,26,18.70
2014,10,18,16,27,18.80
2014,10,18,16,28,18.90
2014,10,18,16,29,18.90
2014,10,18,16,30,18.90
2014,10,18,16,31,18.90
2014,10,18,16,32,18.90
2014,10,18,16,33,18.90
2014,10,18,16,34,18.80
2014,10,18,16,35,18.70
2014,10,18,16,36,18.60
2014,10,18,16,37,18.60
2014,10,18,16,38,18.50
2014,10,18,16,39,18.50
2014,10,18,16,40,18.40
2014,10,18,16,41,18.40
2014,10,18,16,42,18.40
2014,10,18,16,43,18.40
2014,10,18,16,44,18.40
2014,10,18,16,45,18.40
2014,10,18,16,46,18.40
2014,10,18,16,47,18.40
2014,10,18,16,48,18.40
2014,10,18,16,49,18.40
2014,10,18,16,50,18.40
2014,10,18,16,51,18.40
2014,10,18,16,52,18.30
2014,10,18,16,53,18.30
2014,10,18,16,54,18.30
2014,10,18,16,55,18.30
2014,10,18,16,56,18.30
2014,10,18,16,57,18.30
2014,10,18,16,58,18.30
2014,10,18,16,59,18.30
2014,10,18,17,00,18.20
2014,10,18,17,01,18.20
2014,10,18,17,02,18.20
2014,10,18,17,03,18.20
2014,10,18,17,04,18.20
2014,10,18,17,05,18.20
2014,10,18,17,06,18.10
2014,10,18,17,07,18.10
2014,10,18,17,08,18.10
2014,10,18,17,09,18.00
2014,10,18,17,10,17.90
2014,10,18,17,11,17.90
2014,10,18,17,12,17.90
2014,10,18,17,13,17.80
2014,10,18,17,14,17.80
2014,10,18,17,15,17.70
2014,10,18,17,16,17.70
2014,10,18,17,17,17.60
2014,10,18,17,18,17.60
2014,10,18,17,19,17.50
2014,10,18,17,20,17.50
2014,10,18,17,21,17.50
2014,10,18,17,22,17.40
2014,10,18,17,23,17.40
2014,10,18,17,24,17.40
2014,10,18,17,25,17.30
2014,10,18,17,26,17.30
2014,10,18,17,27,17.30
2014,10,18,17,28,17.30
2014,10,18,17,29,17.30
2014,10,18,17,30,17.30
2014,10,18,17,31,17.30
2014,10,18,17,32,17.20
2014,10,18,17,33,17.20
2014,10,18,17,34,17.20
2014,10,18,17,35,17.20
2014,10,18,17,36,17.20
2014,10,18,17,37,17.10
2014,10,18,17,38,17.10
2014,10,18,17,39,17.10
2014,10,18,17,40,17.00
2014,10,18,17,41,17.00
2014,10,18,17,42,17.00
2014,10,18,17,43,17.00
2014,10,18,17,44,17.00
2014,10,18,17,45,16.90
2014,10,18,17,46,16.90
2014,10,18,17,47,16.90
2014,10,18,17,48,16.90
2014,10,18,17,49,16.90
2014,10,18,17,50,16.90
2014,10,18,17,51,16.80
2014,10,18,17,52,16.80
2014,10,18,17,53,16.80
2014,10,18,17,54,16.80
2014,10,18,17,55,16.80
2014,10,18,17,56,16.70
2014,10,18,17,57,16.70
2014,10,18,17,58,16.70
2014,10,18,17,59,16.70
2014,10,18,18,00,16.70
2014,10,18,18,01,16.60
2014,10,18,18,02,16.60
2014,10,18,18,03,16.60
2014,10,18,18,04,16.50
2014,10,18,18,05,16.40
2014,10,18,18,06,16.40
2014,10,18,18,07,16.40
2014,10,18,18,08,16.30
2014,10,18,18,09,16.30
2014,10,18,18,10,16.30
2014,10,18,18,11,16.20
2014,10,18,18,12,16.20
2014,10,18,18,13,16.20
2014,10,18,18,14,16.10
2014,10,18,18,15,16.10
2014,10,18,18,16,16.10
2014,10,18,18,17,16.10
2014,10,18,18,18,16.10
2014,10,18,18,19,16.10
2014,10,18,18,20,16.10
2014,10,18,18,21,16.00
2014,10,18,18,22,15.90
2014,10,18,18,23,15.90
2014,10,18,18,24,15.90
2014,10,18,18,25,15.90
2014,10,18,18,26,15.90
2014,10,18,18,27,15.90
2014,10,18,18,28,15.90
2014,10,18,18,29,15.80
2014,10,18,18,30,15.80
2014,10,18,18,31,15.80
2014,10,18,18,32,15.80
2014,10,18,18,33,15.80
2014,10,18,18,34,15.80
2014,10,18,18,35,15.80
2014,10,18,18,36,15.70
2014,10,18,18,37,15.70
2014,10,18,18,38,15.70
2014,10,18,18,39,15.70
2014,10,18,18,40,15.70
2014,10,18,18,41,15.60
2014,10,18,18,42,15.60
2014,10,18,18,43,15.60
2014,10,18,18,44,15.60
2014,10,18,18,45,15.60
2014,10,18,18,46,15.60
2014,10,18,18,47,15.60
2014,10,18,18,48,15.60
2014,10,18,18,49,15.60
2014,10,18,18,50,15.60
2014,10,18,18,51,15.60
2014,10,18,18,52,15.60
2014,10,18,18,53,15.60
2014,10,18,18,54,15.50
2014,10,18,18,55,15.50
2014,10,18,18,56,15.50
2014,10,18,18,57,15.50
2014,10,18,18,58,15.50
2014,10,18,18,59,15.50
2014,10,18,19,00,15.50
2014,10,18,19,01,15.50
2014,10,18,19,02,15.50
2014,10,18,19,03,15.50
2014,10,18,19,04,15.50
2014,10,18,19,05,15.40
2014,10,18,19,06,15.40
2014,10,18,19,07,15.40
2014,10,18,19,08,15.40
2014,10,18,19,09,15.40
2014,10,18,19,10,15.40
2014,10,18,19,11,15.40
2014,10,18,19,12,15.40
2014,10,18,19,13,15.40
2014,10,18,19,14,15.40
2014,10,18,19,15,15.30
2014,10,18,19,16,15.30
2014,10,18,19,17,15.30